Погода в Тыргу Жиу

Румыния     45°03′02″N   23°18′23″E
темп.,
°C
ветер,
м/с
пор.,
м/с
влажн.,
%
обл.,
%
осадки,
мм/ч
давл.,
гПа
погр.,
м
19 мая, ср
ср1900:00+9зсз23752 0.0 101154
03:00+8сз11825 0.0 101214
06:00+7зсз118498 0.0 101211
09:00+14з1266100 0.0 1012240
12:00+18зюз224873 0.0 1011658
15:00+20зсз3541100 0.0 10101623
18:00+20ссз014797 0.0 1009575
21:00+12зсз4892100 2.3 1009221
20 мая, чт
чт2000:00+11ссв379267 12.3 1010252
03:00+9з1189100 12.3 100910
06:00+10св1195100 1.8 100835
09:00+12юз138781 1.9 1008513
12:00+16зюз4562100 0.3 10081506
15:00+15зюз566183 0.4 10081078
18:00+15з236789 0.1 1008739
21:00+10зюз368416 0.2 1010154
21 мая, пт
пт2100:00+7ссв11919 0.0 101213
03:00+7зсз119020 0.0 101311
06:00+7зсз118811 0.0 101211
09:00+14сз356692 0.0 1013577
12:00+17с56565 0.0 10141161
15:00+18ссв565312 0.0 10141194
18:00+17св57583 0.0 1014806
21:00+12ссв33720 0.0 101634
22 мая, сб
сб2200:00+9с11824 0.0 101711
03:00+8с11810 0.0 101710
06:00+7св11825 0.0 101710
09:00+13юз116995 0.0 1017228
12:00+18юз2262100 0.0 1016718
15:00+21ююз235591 0.0 10141367
18:00+21юз235799 0.0 10131079
21:00+16ю1179100 0.0 101311
23 мая, вс
вс2300:00+13св1188100 0.0 101412
03:00+12ссв1189100 0.0 101410
06:00+11ссз118993 0.0 101410
09:00+17ююз11746 0.0 1015272
12:00+21юз33535 0.0 1015772
15:00+24юз674414 0.0 10141779
18:00+21зюз6105543 0.0 1014630
21:00+14с14675 0.0 101799